Powrót do katalogu

SCOUT X-4 R/B

AktywnyLEO
NORAD 1739·ROCKET BODY·🇺🇸 United States

Wystrzelony Nov 19, 1965 z Wallops Flight Facility

Loading…

Następne Przeloty (najbliższe 24 godziny)

TLE

ŚwieżeSource: Space-Track

Epoka: Sep 14, 2026, 13:09 UTC

1 01739U 65093B   26257.54811362  .00000297  00000-0  10222-3 0  9993
2 01739  59.7021 264.6614 0077210 350.3288   9.6265 14.55308260183331

Śledź SCOUT X-4 R/B w czasie rzeczywistym z AllMySat

Download on the App Store